HINODE (SOLAR-B)

Last updated on Sun Jul 06 2025 00:03:28 GMT+0000 (Coordinated Universal Time)

1 29479U 06041A 25186.59184262 .00000599 00000+0 11309-3 0 9990 2 29479 98.0709 202.6631 0016478 310.4842 49.4926 14.67953697 4010
UTC large
Height (km)
Speed (km/s)
/
Latitude / Longitude
Inclination (degrees)
Orbital Period (minutes)
Azimuth
Elevation
Range (km)
Doppler Factor

Next 0 passes for location: London (51.5072 / 0.1276)

Sorry there are no passes over London.